Location: Unspecified
(41.5516°N, 88.1098°W)
Time: 01:17:16
(UTC-05:00)

Resurs 1-4 Rocket - Visible Passes

Search period start: 24 July 2014 00:00
Search period end: 03 August 2014 00:00
Orbit: 800 x 815 km, 98.3° (Epoch: 22 July)

Date Brightness Start Highest point End Pass type
(mag) Time Alt. Az. Time Alt. Az. Time Alt. Az.
24 Jul 4.6 03:51:57 10° NE 03:55:14 17° E 03:58:30 10° SE visible
25 Jul 2.2 05:05:51 10° NNE 05:11:08 82° ESE 05:16:22 10° SSW visible
26 Jul 3.0 04:41:35 10° NNE 04:46:41 49° E 04:51:44 10° S visible
27 Jul 3.9 04:17:35 10° NE 04:22:08 29° E 04:26:39 10° SSE visible
28 Jul 4.6 03:54:02 10° NE 03:57:30 18° E 04:00:57 10° SE visible
29 Jul 2.2 05:08:05 10° NNE 05:13:22 87° ESE 05:18:37 10° SSW visible
30 Jul 2.9 04:43:48 10° NNE 04:48:56 52° E 04:54:01 10° S visible
31 Jul 3.8 04:19:45 10° NE 04:24:24 31° E 04:29:00 10° SSE visible
01 Aug 4.5 03:56:08 10° NE 03:59:46 19° E 04:03:23 10° SE visible
02 Aug 4.9 03:33:59 10° ENE 03:35:04 11° E 03:36:08 10° E visible
02 Aug 2.1 05:10:20 10° NNE 05:15:37 89° WNW 05:20:51 10° SSW visible
